Location: Mannheim
(49.4880°N, 8.4650°E)
Time: 07:32:57
(UTC+01:00)

ISS - Pass Details

Date: 22 November 2023
Orbit: 416 x 417 km, 51.6° (Epoch: 01 December)

Event Time Altitude Azimuth Distance (km) Brightness Sun altitude
Rises 19:01:42 0° 264° (W) 2,359 1.5 -23.1°
Reaches altitude 10° 19:03:49 10° 268° (W) 1,497 0.1 -23.5°
Enters shadow 19:06:10 40° 286° (WNW) 627 -2.5 -23.9°
